When you browse on this site, cookies collect data to enhance your experience and personalize the content and advertising you see.
Visit our Privacy Policy to learn more. By continuing to use the site, you agree to this use of cookies and data.
  • In Slovakia
  • List of Countries
  • For 7 days
  • Water Temperature
  • Satellite Maps
  • Weather Map
  • Weather Widgets
  • user-avatar
    Login

    Hourly Weather Tibissa

    Today, 18 January, Friday

    Time Temperature Precipitation Wind Pressure Humidity
    00:00 +5°C° 0 mm 2 mps 683 mmHg 60%
    01:00 +4°C° 0 mm 2 mps 683 mmHg 60%
    02:00 +5°C° 0 mm 1 mps 683 mmHg 60%
    03:00 +5°C° 0 mm 1 mps 682 mmHg 60%
    04:00 +4°C° 0 mm 1 mps 682 mmHg 60%
    05:00 +4°C° 0 mm 1 mps 682 mmHg 61%
    06:00 +4°C° 0 mm 1 mps 682 mmHg 63%
    07:00 +4°C° 0 mm 1 mps 682 mmHg 64%
    08:00 +5°C° 0 mm 1 mps 683 mmHg 59%
    09:00 +7°C° 0 mm 1 mps 683 mmHg 54%
    10:00 +8°C° 0 mm 2 mps 684 mmHg 49%
    11:00 +8°C° 0 mm 2 mps 684 mmHg 46%
    12:00 +9°C° 0 mm 2 mps 684 mmHg 44%
    13:00 +10°C° 0 mm 3 mps 683 mmHg 41%
    14:00 +10°C° 0 mm 3 mps 683 mmHg 41%
    15:00 +10°C° 0 mm 3 mps 683 mmHg 41%
    16:00 +11°C° 0 mm 3 mps 683 mmHg 41%
    17:00 +9°C° 0 mm 2 mps 683 mmHg 47%
    18:00 +8°C° 0 mm 2 mps 683 mmHg 53%
    19:00 +8°C° 0 mm 1 mps 683 mmHg 59%
    20:00 +7°C° 0 mm 1 mps 683 mmHg 63%
    21:00 +7°C° 0 mm 1 mps 683 mmHg 67%
    22:00 +5°C° 0 mm 0 mps 683 mmHg 71%
    23:00 +5°C° 0 mm 0 mps 683 mmHg 73%

    Tomorrow, 19 January, Saturday

    Time Temperature Precipitation Wind Pressure Humidity
    00:00 +4°C° 0 mm 0 mps 683 mmHg 76%
    01:00 +4°C° 0 mm 0 mps 683 mmHg 79%
    02:00 +4°C° 0 mm 0 mps 682 mmHg 80%
    03:00 +3°C° 0 mm 0 mps 682 mmHg 82%
    04:00 +3°C° 0 mm 0 mps 682 mmHg 84%
    05:00 +3°C° 0 mm 0 mps 682 mmHg 85%
    06:00 +2°C° 0 mm 0 mps 682 mmHg 85%
    07:00 +2°C° 0 mm 0 mps 682 mmHg 86%
    08:00 +4°C° 0 mm 0 mps 682 mmHg 77%
    09:00 +7°C° 0 mm 1 mps 683 mmHg 68%
    10:00 +8°C° 0 mm 1 mps 684 mmHg 59%
    11:00 +9°C° 0 mm 1 mps 683 mmHg 54%
    12:00 +10°C° 0 mm 1 mps 683 mmHg 48%
    13:00 +11°C° 0 mm 1 mps 683 mmHg 43%
    14:00 +10°C° 0 mm 2 mps 683 mmHg 42%
    15:00 +10°C° 0 mm 2 mps 683 mmHg 41%
    16:00 +10°C° 0 mm 2 mps 682 mmHg 40%
    17:00 +10°C° 0 mm 2 mps 682 mmHg 46%
    18:00 +9°C° 0 mm 2 mps 683 mmHg 52%
    19:00 +8°C° 0 mm 2 mps 683 mmHg 58%
    20:00 +7°C° 0.1 mm 2 mps 683 mmHg 65%
    21:00 +7°C° 0.1 mm 2 mps 683 mmHg 72%
    22:00 +7°C° 0.1 mm 1 mps 683 mmHg 79%
    23:00 +6°C° 0 mm 1 mps 683 mmHg 82%

    Day after tomorrow, 20 January, Sunday

    Time Temperature Precipitation Wind Pressure Humidity
    00:00 +6°C° 0 mm 1 mps 683 mmHg 86%
    01:00 +4°C° 0 mm 0 mps 682 mmHg 90%
    02:00 +4°C° 0 mm 0 mps 682 mmHg 90%
    03:00 +3°C° 0 mm 0 mps 682 mmHg 90%
    04:00 +3°C° 0 mm 0 mps 682 mmHg 91%
    05:00 +4°C° 0 mm 1 mps 682 mmHg 89%
    06:00 +4°C° 0 mm 1 mps 682 mmHg 88%
    07:00 +4°C° 0 mm 1 mps 682 mmHg 87%
    08:00 +4°C° 0 mm 2 mps 682 mmHg 79%
    09:00 +6°C° 0 mm 2 mps 682 mmHg 71%
    10:00 +7°C° 0 mm 3 mps 683 mmHg 63%
    11:00 +7°C° 0 mm 4 mps 682 mmHg 55%
    12:00 +8°C° 0 mm 6 mps 682 mmHg 48%
    13:00 +9°C° 0 mm 7 mps 682 mmHg 41%
    14:00 +9°C° 0 mm 8 mps 681 mmHg 44%
    15:00 +9°C° 0 mm 8 mps 681 mmHg 47%
    16:00 +7°C° 0 mm 8 mps 680 mmHg 50%
    17:00 +6°C° 0.1 mm 8 mps 680 mmHg 57%
    18:00 +6°C° 0.1 mm 8 mps 680 mmHg 64%
    19:00 +5°C° 0.1 mm 8 mps 680 mmHg 71%
    20:00 +5°C° 0.2 mm 7 mps 680 mmHg 74%
    21:00 +5°C° 0.2 mm 7 mps 680 mmHg 77%
    22:00 +4°C° 0.2 mm 6 mps 680 mmHg 79%
    23:00 +4°C° 0 mm 6 mps 680 mmHg 82%

    21 January, Monday

    Time Temperature Precipitation Wind Pressure Humidity
    00:00 +5°C° 0 mm 5 mps 679 mmHg 84%
    01:00 +4°C° 0 mm 4 mps 679 mmHg 87%
    02:00 +4°C° 0 mm 4 mps 679 mmHg 87%
    03:00 +4°C° 0 mm 4 mps 679 mmHg 86%
    04:00 +4°C° 0 mm 3 mps 678 mmHg 86%
    05:00 +4°C° 0 mm 3 mps 678 mmHg 87%
    06:00 +4°C° 0 mm 3 mps 679 mmHg 87%
    07:00 +4°C° 0 mm 2 mps 679 mmHg 87%
    08:00 +5°C° 0 mm 3 mps 679 mmHg 78%
    09:00 +6°C° 0 mm 4 mps 679 mmHg 69%
    10:00 +7°C° 0 mm 5 mps 680 mmHg 61%
    11:00 +8°C° 0 mm 7 mps 680 mmHg 59%
    12:00 +9°C° 0 mm 8 mps 680 mmHg 57%
    13:00 +8°C° 0 mm 10 mps 680 mmHg 55%
    14:00 +7°C° 0 mm 10 mps 680 mmHg 59%
    15:00 +7°C° 0 mm 10 mps 680 mmHg 63%
    16:00 +6°C° 0 mm 10 mps 680 mmHg 68%
    17:00 +5°C° 0 mm 10 mps 680 mmHg 71%
    18:00 +5°C° 0 mm 10 mps 681 mmHg 74%
    19:00 +3°C° 0 mm 9 mps 681 mmHg 77%
    20:00 +3°C° 0 mm 9 mps 682 mmHg 79%
    21:00 +2°C° 0 mm 9 mps 682 mmHg 81%
    22:00 +2°C° 0 mm 9 mps 683 mmHg 83%
    23:00 +1°C° 0 mm 8 mps 683 mmHg 85%

    22 January, Tuesday

    Time Temperature Precipitation Wind Pressure Humidity
    00:00 +2°C° 0 mm 7 mps 683 mmHg 86%
    01:00 +1°C° 0 mm 6 mps 683 mmHg 87%
    02:00 +1°C° 0 mm 6 mps 683 mmHg 88%
    03:00 +1°C° 0 mm 6 mps 683 mmHg 90%
    04:00 +1°C° 0 mm 5 mps 683 mmHg 91%
    05:00 0°C° 0 mm 5 mps 683 mmHg 91%
    06:00 0°C° 0 mm 5 mps 683 mmHg 91%
    07:00 0°C° 0 mm 4 mps 683 mmHg 92%
    08:00 +1°C° 0 mm 5 mps 683 mmHg 86%
    09:00 +2°C° 0 mm 6 mps 684 mmHg 80%
    10:00 +2°C° 0 mm 7 mps 684 mmHg 74%
    11:00 +3°C° 0 mm 7 mps 684 mmHg 67%
    12:00 +4°C° 0 mm 8 mps 684 mmHg 61%
    13:00 +5°C° 0 mm 8 mps 684 mmHg 54%
    14:00 +5°C° 0 mm 8 mps 684 mmHg 55%
    15:00 +5°C° 0 mm 8 mps 683 mmHg 56%
    16:00 +5°C° 0 mm 8 mps 683 mmHg 56%
    17:00 +4°C° 0 mm 7 mps 683 mmHg 61%
    18:00 +3°C° 0 mm 5 mps 683 mmHg 66%
    19:00 +3°C° 0 mm 4 mps 683 mmHg 71%
    20:00 +1°C° 0 mm 4 mps 683 mmHg 72%
    21:00 +2°C° 0 mm 3 mps 683 mmHg 73%
    22:00 +2°C° 0 mm 3 mps 683 mmHg 74%
    23:00 +1°C° 0 mm 3 mps 682 mmHg 71%

    23 January, Wednesday

    Time Temperature Precipitation Wind Pressure Humidity
    00:00 +1°C° 0 mm 3 mps 682 mmHg 69%
    01:00 +1°C° 0 mm 3 mps 681 mmHg 66%
    02:00 0°C° 0 mm 4 mps 681 mmHg 68%
    03:00 0°C° 0 mm 4 mps 680 mmHg 70%
    04:00 0°C° 0 mm 4 mps 679 mmHg 72%
    05:00 0°C° 0 mm 4 mps 679 mmHg 75%
    06:00 0°C° 0 mm 4 mps 679 mmHg 78%
    07:00 0°C° 0 mm 4 mps 678 mmHg 81%
    08:00 +1°C° 0 mm 6 mps 678 mmHg 72%
    09:00 +3°C° 0 mm 7 mps 679 mmHg 63%
    10:00 +4°C° 0 mm 8 mps 679 mmHg 54%
    11:00 +5°C° 0.1 mm 9 mps 678 mmHg 54%
    12:00 +6°C° 0.1 mm 10 mps 678 mmHg 54%
    13:00 +5°C° 0.1 mm 12 mps 678 mmHg 54%
    14:00 +6°C° 0 mm 11 mps 677 mmHg 54%
    15:00 +6°C° 0 mm 11 mps 676 mmHg 55%
    16:00 +6°C° 0 mm 11 mps 676 mmHg 55%
    17:00 +5°C° 0 mm 9 mps 676 mmHg 58%
    18:00 +4°C° 0 mm 8 mps 676 mmHg 61%
    19:00 +3°C° 0 mm 7 mps 675 mmHg 64%
    20:00 +3°C° 0 mm 7 mps 675 mmHg 66%
    21:00 +3°C° 0 mm 7 mps 675 mmHg 69%
    22:00 +3°C° 0 mm 7 mps 675 mmHg 71%
    23:00 +3°C° 0 mm 7 mps 674 mmHg 71%
    Show more